Terminal Aerodrome Forecast
Issued by NWS

Home | Current Version | Previous Version | Graphics & Text | Print | Product List | Glossary On
Versions: 1 2 3 4 5 6 7 8 9 10 11 12 13 14 15 16 17 18 19 20 21 22 23 24 25
000
FTUS43 KGRB 240800 AAA
TAFAUW
TAF AMD
KAUW 240814Z 2408/2506 VRB03KT P6SM OVC007
      TEMPO 2410/2413 2SM -FZDZ BR OVC003
     FM241300 04006KT 6SM -SN BR SCT005 OVC010
     FM241900 35008KT P6SM -SN SCT008 OVC015
     FM250100 31006KT P6SM BKN015 OVC022=

USA.gov is the U.S. government's official web portal to all federal, state and local government web resources and services.